STARLINK-6038 (56317 NORAD) Tracking and Keplerian Element Data

This shows tracking and keplerian element data for the satellite.

Feedback or suggestion? Click here.




ElementValue
Catalog56317
NameSTARLINK-6038
Epoch Orbit179
Epoch Day126.91667824
Epoch Year2023
RAAN126.3803
Inclination97.6631
Eccentricity0.0001586
Argument of Perigee95.492
Mean Anonmoly118.0664
Mean Motion15.68082152
Decay Rate-0.0079767
L11 56317U 23058A 23126.91667824 -.00797670 00000+0 -79181-2 0 9992
L22 56317 97.6631 126.3803 0001586 95.4920 118.0664 15.68082152 1799



Live tracking and technical data element details for STARLINK-6038 (NORAD 56317). STARLINK-6038 can be tracked NOW for your location showing map with azimuth and elevation plus other details from your city location.







IsCatalogInMostPopularTable: catalog: 56317, numindb: 7
Update: records affected: 1



GetName: 56317 STARLINK-6038

Hit Count: updated at: Wed, 07 Jun 2023 10:00:12 GMT